Regional Weather Roundup
Issued by NWS

Home | Current Version | Previous Version | Text Only | Print | Product List | Glossary Off
Versions: 1 2 3 4 5 6 7 8 9 10 11 12 13 14 15 16 17 18 19 20 21 22 23 24 25 26 27 28 29 30 31 32 33 34 35 36 37 38 39 40 41 42 43 44 45 46 47 48 49 50

000
ASUS43 KLOT 041521
RWRIL

ILLINOIS REGIONAL WEATHER ROUNDUP
NATIONAL WEATHER SERVICE CHICAGO/ROMEOVILLE IL
1000 AM CDT MON MAY 04 2015

NOTE: "FAIR" INDICATES FEW OR NO CLOUDS BELOW 12,000 FEET WITH NO
SIGNIFICANT WEATHER AND/OR OBSTRUCTIONS TO VISIBILITY.

* THESE STATIONS ARE NOT UNDER NWS QUALITY CONTROL. THEY ALSO MAY NOT
  REPORT WEATHER SUCH AS PRECIPITATION OR FOG.

ILZ001-002-007-009-015-016-024-041600-
NORTHWEST ILLINOIS

CITY           SKY/WX    TMP DP  RH WIND       PRES   REMARKS
MOLINE         PTSUNNY   66  59  78 VRB3      30.06R
STERLING*      CLOUDY    66  61  82 CALM      30.09R
SAVANNA*       CLOUDY    63  59  87 NE7       30.08R
$$

ILZ003-004-008-010-011-017-018-041600-
NORTH CENTRAL ILLINOIS

CITY           SKY/WX    TMP DP  RH WIND       PRES   REMARKS
ROCKFORD       CLOUDY    65  57  75 NW6       30.09R
FREEPORT*      CLOUDY    61  57  86 CALM      30.11R
ROCHELLE*      CLOUDY    64  60  86 NW3       30.09R
DE KALB*       CLOUDY    62  58  87 NW5       30.09R
PERU*          CLOUDY    63  59  86 SW5       30.07R
$$

ILZ005-006-012>014-019>023-041600-
NORTHEAST ILLINOIS

CITY           SKY/WX    TMP DP  RH WIND       PRES   REMARKS
CHICAGO-OHARE  CLOUDY    66  58  75 W10       30.07R
CHICAGO-MIDWAY CLOUDY    69  59  70 W8        30.07R
AURORA         CLOUDY    64  57  78 CALM      30.08R
LANSING*       CLOUDY    64  57  78 SW3       30.08R
JOLIET*        CLOUDY    66  61  82 CALM      30.08R
WAUKEGAN       CLOUDY    65  57  75 SW6       30.06R
DUPAGE AIRPORT CLOUDY    65  59  81 W5        30.07S
KANKAKEE*      DRIZZLE   61  60  95 S8        30.07F
WHEELING       PTSUNNY   68  57  68 W9        30.08R
MORRIS*        CLOUDY    64  58  81 SW3       30.06R
ROMEOVILLE*    CLOUDY    64  58  82 N7        30.08R
NORTHERLY ISL    N/A     66  56  70 W8          N/A
$$

LMZ740>746-041600-
SOUTHERN LAKE MICHIGAN

STATION/POSITION SKY/WX   TEMP    WIND        PRES    VSBY  WAVE
                          AIR SEA DIR/SP/G                  HT/PER
                          (F)     (DEG/KT/KT) (MB)    (MI)  (FT/S)
HARRISON CRIB              65     260/ 12/ 15   N/A
BURNHAM HARBOR             67     280/  9/ 14   N/A
CALUMET HARBOR             65     230/  4/  9   N/A
BURNS HARBOR               58     230/  6/ 10 1018.6R
MICHIGAN CITY              62     230/ 12/ 12   N/A
MICHIGAN CITY 6N           55 49  250/  4/  6   N/A           1/ 2
ST. JOSEPH                 51 47  240/  4/  6   N/A           1/ 4
$$

ILZ025>027-034>036-040-047-049-050-058-095>099-041600-
WEST-CENTRAL ILLINOIS

CITY           SKY/WX    TMP DP  RH WIND       PRES   REMARKS
QUINCY         CLOUDY    72  57  59 SW10      30.06R
GALESBURG*     CLOUDY    64  61  91 S7        30.06R
MACOMB*        CLOUDY    66  63  88 S10       30.08R
JACKSONVILLE*  CLOUDY    74  60  61 S12       30.07F
PITTSFIELD*    CLOUDY    74  58  56 S9        30.08S
$$

ILZ028>032-037-038-041>044-048-051>054-059>061-041600-
CENTRAL ILLINOIS

CITY           SKY/WX    TMP DP  RH WIND       PRES   REMARKS
PONTIAC        CLOUDY    64  62  91 S7        30.06S
BLOOMINGTON    CLOUDY    66  62  87 S13       30.07F
DECATUR        CLOUDY    68  61  78 SW12      30.10R
PEORIA         LGT RAIN  66  62  87 S10       30.05S FOG
LACON*         CLOUDY    64  60  88 SW8       30.04R
LINCOLN*       CLOUDY    68  61  78 S7G16     30.06R
SPRINGFIELD    CLOUDY    71  60  68 S13       30.08S
TAYLORVILLE    CLOUDY    70  59  68 SW12      30.10F
$$

ILZ033-039-045-046-055>057-062-063-041600-
EAST-CENTRAL ILLINOIS

CITY           SKY/WX    TMP DP  RH WIND       PRES   REMARKS
CHAMPAIGN      CLOUDY    65  60  84 S13       30.09F
DANVILLE*      CLOUDY    60  58  92 SE7       30.09F
RANTOUL*       CLOUDY    64  60  88 S8        30.09F
MATTOON        LGT RAIN  65  58  78 SW9       30.12F
PARIS*         DRIZZLE   65  59  80 S7        30.15S
$$

ILZ079-100>102-041600-
SOUTHWEST ILLINOIS

CITY           SKY/WX    TMP DP  RH WIND       PRES   REMARKS
BELLEVILLE     CLOUDY    70  60  69 VRB1      30.13R
CAHOKIA*       CLOUDY    72  60  66 S8        30.12S
SPARTA*        PTSUNNY   73  59  62 S9        30.15R
$$

ILZ064>066-069>071-074>076-080>082-084>086-088>090-092>094-041600-
SOUTH-CENTRAL ILLINOIS

CITY           SKY/WX    TMP DP  RH WIND       PRES   REMARKS
CARBONDALE     PTSUNNY   74  58  57 SW10      30.16R
CAIRO*         PTSUNNY   73  59  61 S7        30.19R
EFFINGHAM*     CLOUDY    66  57  72 S5        30.16R
MARION         PTSUNNY   73  59  60 S6        30.18R
MT. VERNON     PTSUNNY  N/A N/A N/A SW6       30.16R
CENTRALIA*     PTSUNNY   80  54  40 SW9       30.14R HX  80
SALEM*         PTSUNNY   75  55  49 SW6       30.15R
METROPOLIS*    PTSUNNY   72  58  62 SW5       30.19S
$$

ILZ067-068-072-073-078-083-087-091-041600-
SOUTHEAST ILLINOIS

CITY           SKY/WX    TMP DP  RH WIND       PRES   REMARKS
LAWRENCEVILLE  CLOUDY    72  54  53 W8        30.16R
FLORA*         PTSUNNY   73  55  54 SW8       30.15S
FAIRFIELD*     MOSUNNY   75  56  50 S9        30.14S
HARRISBURG*    PTSUNNY   74  56  54 SW9       30.17S
ROBINSON*      PTSUNNY   73  53  50 W9        30.16S
CARMI*         SUNNY     75  53  45 S8        30.16R
$$

ABBREVIATIONS USED IN REMARKS
   TC - TEMPERATURE IN CELSIUS
  WCI - WIND CHILL INDEX
   HX - HEAT INDEX
  VSB - VISIBILITY
$$




USA.gov is the U.S. government's official web portal to all federal, state and local government web resources and services.